Time,TemperatureF,DewpointF,PressureIn,WindDirection,WindDirectionDegrees,WindSpeedMPH,WindSpeedGustMPH,Humidity,HourlyPrecipIn,Conditions,Clouds,dailyrainin,SoftwareType,DateUTC
2013-05-12 00:02:00,68.0,-99.9,30.02,NW,324,1.0,2.0,-999,-99.99,,,-99.99,,2013-05-12 05:02:00,
2013-05-12 00:12:00,67.0,-99.9,30.02,West,274,0.0,1.0,-999,-99.99,,,-99.99,,2013-05-12 05:12:00,
2013-05-12 00:22:00,67.0,-99.9,30.02,North,-999,-999.0,-999.0,-999,-99.99,,,-99.99,,2013-05-12 05:22:00,
2013-05-12 00:32:00,67.0,-99.9,30.02,West,281,2.0,2.0,-999,-99.99,,,-99.99,,2013-05-12 05:32:00,
2013-05-12 00:42:00,67.0,-99.9,30.02,West,261,2.0,3.0,-999,-99.99,,,-99.99,,2013-05-12 05:42:00,
2013-05-12 00:52:00,68.0,-99.9,30.02,North,-999,-999.0,-999.0,-999,-99.99,,,-99.99,,2013-05-12 05:52:00,
2013-05-12 01:02:00,68.0,-99.9,30.02,West,260,5.0,7.0,-999,-99.99,,,-99.99,,2013-05-12 06:02:00,
2013-05-12 01:11:00,68.0,-99.9,30.02,West,262,5.0,7.0,-999,-99.99,,,-99.99,,2013-05-12 06:11:00,
2013-05-12 01:22:00,69.0,-99.9,30.02,WSW,251,5.0,7.0,-999,-99.99,,,-99.99,,2013-05-12 06:22:00,
2013-05-12 01:32:00,69.0,-99.9,30.01,WSW,246,6.0,8.0,-999,-99.99,,,-99.99,,2013-05-12 06:32:00,
2013-05-12 01:42:00,69.0,-99.9,30.01,WNW,282,5.0,7.0,-999,-99.99,,,-99.99,,2013-05-12 06:42:00,
2013-05-12 01:52:00,68.0,-99.9,30.01,West,278,5.0,6.0,-999,-99.99,,,-99.99,,2013-05-12 06:52:00,
2013-05-12 02:02:00,68.0,-99.9,30.01,WNW,300,5.0,7.0,-999,-99.99,,,-99.99,,2013-05-12 07:02:00,
2013-05-12 02:11:00,68.0,-99.9,30.01,WNW,303,4.0,5.0,-999,-99.99,,,-99.99,,2013-05-12 07:11:00,
2013-05-12 02:22:00,68.0,-99.9,30.00,North,-999,-999.0,-999.0,-999,-99.99,,,-99.99,,2013-05-12 07:22:00,
2013-05-12 02:32:00,68.0,-99.9,30.00,NW,323,7.0,9.0,-999,-99.99,,,-99.99,,2013-05-12 07:32:00,
2013-05-12 02:42:00,68.0,-99.9,30.00,NNW,331,9.0,12.0,-999,-99.99,,,-99.99,,2013-05-12 07:42:00,
2013-05-12 02:52:00,68.0,-99.9,29.99,North,-999,-999.0,-999.0,-999,-99.99,,,-99.99,,2013-05-12 07:52:00,
2013-05-12 03:02:00,67.0,-99.9,29.99,NNW,335,7.0,9.0,-999,-99.99,,,-99.99,,2013-05-12 08:02:00,
2013-05-12 03:11:00,67.0,-99.9,30.00,NNW,337,8.0,11.0,-999,-99.99,,,-99.99,,2013-05-12 08:11:00,
2013-05-12 03:21:00,67.0,-99.9,30.00,NNW,337,8.0,11.0,-999,-99.99,,,-99.99,,2013-05-12 08:21:00,
2013-05-12 03:32:00,67.0,-99.9,30.00,NNW,345,10.0,14.0,-999,-99.99,,,-99.99,,2013-05-12 08:32:00,
2013-05-12 03:42:00,66.0,-99.9,30.00,NNW,344,9.0,12.0,-999,-99.99,,,-99.99,,2013-05-12 08:42:00,
2013-05-12 03:53:00,66.0,-99.9,30.01,NNW,345,10.0,14.0,-999,-99.99,,,-99.99,,2013-05-12 08:53:00,
2013-05-12 04:01:00,66.0,-99.9,30.01,NNW,345,10.0,14.0,-999,-99.99,,,-99.99,,2013-05-12 09:01:00,
2013-05-12 04:11:00,66.0,-99.9,30.01,North,349,8.0,12.0,-999,-99.99,,,-99.99,,2013-05-12 09:11:00,
2013-05-12 04:21:00,66.0,-99.9,30.01,North,350,8.0,11.0,-999,-99.99,,,-99.99,,2013-05-12 09:21:00,
2013-05-12 04:33:00,65.0,-99.9,30.01,North,352,8.0,10.0,-999,-99.99,,,-99.99,,2013-05-12 09:33:00,
2013-05-12 04:43:00,65.0,-99.9,30.01,North,351,8.0,12.0,-999,-99.99,,,-99.99,,2013-05-12 09:43:00,
2013-05-12 04:53:00,65.0,-99.9,30.01,North,-999,-999.0,-999.0,-999,-99.99,,,-99.99,,2013-05-12 09:53:00,
2013-05-12 05:03:00,65.0,-99.9,30.01,North,353,7.0,9.0,-999,-99.99,,,-99.99,,2013-05-12 10:03:00,
2013-05-12 05:12:00,64.0,-99.9,30.01,North,351,7.0,9.0,-999,-99.99,,,-99.99,,2013-05-12 10:12:00,
2013-05-12 05:23:00,64.0,-99.9,30.02,North,-999,-999.0,-999.0,-999,-99.99,,,-99.99,,2013-05-12 10:23:00,
2013-05-12 05:33:00,64.0,-99.9,30.02,North,353,8.0,10.0,-999,-99.99,,,-99.99,,2013-05-12 10:33:00,
2013-05-12 05:42:00,64.0,-99.9,30.02,North,352,8.0,10.0,-999,-99.99,,,-99.99,,2013-05-12 10:42:00,
2013-05-12 05:52:00,64.0,-99.9,30.03,North,-999,-999.0,-999.0,-999,-99.99,,,-99.99,,2013-05-12 10:52:00,
2013-05-12 06:03:00,64.0,-99.9,30.03,North,352,9.0,12.0,-999,-99.99,,,-99.99,,2013-05-12 11:03:00,
2013-05-12 06:12:00,64.0,-99.9,30.03,North,353,7.0,9.0,-999,-99.99,,,-99.99,,2013-05-12 11:12:00,
2013-05-12 06:22:00,64.0,-99.9,30.04,North,-999,-999.0,-999.0,-999,-99.99,,,-99.99,,2013-05-12 11:22:00,
2013-05-12 06:32:00,63.0,-99.9,30.04,North,352,7.0,9.0,-999,-99.99,,,-99.99,,2013-05-12 11:32:00,
2013-05-12 06:42:00,63.0,-99.9,30.04,North,-999,-999.0,-999.0,-999,-99.99,,,-99.99,,2013-05-12 11:42:00,
2013-05-12 06:52:00,64.0,-99.9,30.04,North,357,8.0,10.0,-999,-99.99,,,-99.99,,2013-05-12 11:52:00,
2013-05-12 07:02:00,64.0,-99.9,30.04,North,355,8.0,12.0,-999,-99.99,,,-99.99,,2013-05-12 12:02:00,
2013-05-12 07:11:00,64.0,-99.9,30.04,North,355,8.0,11.0,-999,-99.99,,,-99.99,,2013-05-12 12:11:00,
2013-05-12 07:22:00,64.0,-99.9,30.05,North,-999,-999.0,-999.0,-999,-99.99,,,-99.99,,2013-05-12 12:22:00,
2013-05-12 07:32:00,64.0,-99.9,30.05,North,350,8.0,11.0,-999,-99.99,,,-99.99,,2013-05-12 12:32:00,
2013-05-12 07:42:00,65.0,-99.9,30.06,North,356,8.0,11.0,-999,-99.99,,,-99.99,,2013-05-12 12:42:00,
2013-05-12 07:52:00,65.0,-99.9,30.06,North,-999,-999.0,-999.0,-999,-99.99,,,-99.99,,2013-05-12 12:52:00,
2013-05-12 08:02:00,65.0,-99.9,30.06,North,358,11.0,15.0,-999,-99.99,,,-99.99,,2013-05-12 13:02:00,
2013-05-12 08:11:00,66.0,-99.9,30.07,North,3,10.0,14.0,-999,-99.99,,,-99.99,,2013-05-12 13:11:00,
2013-05-12 08:21:00,67.0,-99.9,30.07,North,-999,-999.0,-999.0,-999,-99.99,,,-99.99,,2013-05-12 13:21:00,
2013-05-12 08:32:00,66.0,-99.9,30.07,North,1,11.0,13.0,-999,-99.99,,,-99.99,,2013-05-12 13:32:00,
2013-05-12 08:42:00,68.0,-99.9,30.07,NNE,14,8.0,11.0,-999,-99.99,,,-99.99,,2013-05-12 13:42:00,
2013-05-12 08:52:00,68.0,-99.9,30.08,NNE,18,9.0,14.0,-999,-99.99,,,-99.99,,2013-05-12 13:52:00,
2013-05-12 09:02:00,68.0,-99.9,30.08,North,5,12.0,15.0,-999,-99.99,,,-99.99,,2013-05-12 14:02:00,
2013-05-12 09:11:00,69.0,-99.9,30.08,North,-999,-999.0,-999.0,-999,-99.99,,,-99.99,,2013-05-12 14:11:00,
2013-05-12 09:22:00,70.0,-99.9,30.08,NNE,25,10.0,13.0,-999,-99.99,,,-99.99,,2013-05-12 14:22:00,
2013-05-12 09:32:00,70.0,-99.9,30.08,NNE,24,9.0,12.0,-999,-99.99,,,-99.99,,2013-05-12 14:32:00,
2013-05-12 09:42:00,71.0,-99.9,30.09,NNE,28,11.0,16.0,-999,-99.99,,,-99.99,,2013-05-12 14:42:00,
2013-05-12 09:52:00,71.0,-99.9,30.09,North,-999,-999.0,-999.0,-999,-99.99,,,-99.99,,2013-05-12 14:52:00,
2013-05-12 10:01:00,71.0,-99.9,30.09,NNE,16,10.0,13.0,-999,-99.99,,,-99.99,,2013-05-12 15:01:00,
2013-05-12 10:11:00,72.0,-99.9,30.09,North,9,11.0,16.0,-999,-99.99,,,-99.99,,2013-05-12 15:11:00,
2013-05-12 10:21:00,72.0,-99.9,30.09,North,7,12.0,14.0,-999,-99.99,,,-99.99,,2013-05-12 15:21:00,
2013-05-12 10:34:00,72.0,-99.9,30.09,North,3,13.0,16.0,-999,-99.99,,,-99.99,,2013-05-12 15:34:00,
2013-05-12 10:42:00,73.0,-99.9,30.09,North,-999,-999.0,-999.0,-999,-99.99,,,-99.99,,2013-05-12 15:42:00,
2013-05-12 10:53:00,73.0,-99.9,30.09,North,-999,-999.0,-999.0,-999,-99.99,,,-99.99,,2013-05-12 15:53:00,
2013-05-12 11:02:00,73.0,-99.9,30.09,North,9,15.0,18.0,-999,-99.99,,,-99.99,,2013-05-12 16:02:00,
2013-05-12 11:13:00,73.0,-99.9,30.08,North,7,12.0,17.0,-999,-99.99,,,-99.99,,2013-05-12 16:13:00,
2013-05-12 11:23:00,73.0,-99.9,30.08,North,11,11.0,17.0,-999,-99.99,,,-99.99,,2013-05-12 16:23:00,
2013-05-12 11:33:00,73.0,-99.9,30.08,NNE,17,12.0,17.0,-999,-99.99,,,-99.99,,2013-05-12 16:33:00,
2013-05-12 11:42:00,73.0,-99.9,30.08,NNE,16,10.0,15.0,-999,-99.99,,,-99.99,,2013-05-12 16:42:00,
2013-05-12 11:53:00,73.0,-99.9,30.09,North,-999,-999.0,-999.0,-999,-99.99,,,-99.99,,2013-05-12 16:53:00,
2013-05-12 12:02:00,74.0,-99.9,30.09,NE,37,10.0,14.0,-999,-99.99,,,-99.99,,2013-05-12 17:02:00,
2013-05-12 12:12:00,73.0,-99.9,30.09,NNE,26,9.0,15.0,-999,-99.99,,,-99.99,,2013-05-12 17:12:00,
2013-05-12 12:22:00,74.0,-99.9,30.10,NE,37,7.0,10.0,-999,-99.99,,,-99.99,,2013-05-12 17:22:00,
2013-05-12 12:32:00,75.0,-99.9,30.09,North,2,9.0,13.0,-999,-99.99,,,-99.99,,2013-05-12 17:32:00,
2013-05-12 12:42:00,75.0,-99.9,30.10,NE,37,8.0,12.0,-999,-99.99,,,-99.99,,2013-05-12 17:42:00,
2013-05-12 12:53:00,76.0,-99.9,30.09,North,-999,-999.0,-999.0,-999,-99.99,,,-99.99,,2013-05-12 17:53:00,
2013-05-12 13:01:00,75.0,-99.9,30.09,North,10,9.0,14.0,-999,-99.99,,,-99.99,,2013-05-12 18:01:00,
2013-05-12 13:12:00,75.0,-99.9,30.08,NE,38,8.0,15.0,-999,-99.99,,,-99.99,,2013-05-12 18:12:00,
2013-05-12 13:22:00,76.0,-99.9,30.08,North,8,6.0,9.0,-999,-99.99,,,-99.99,,2013-05-12 18:22:00,
2013-05-12 13:32:00,76.0,-99.9,30.08,NNE,22,6.0,12.0,-999,-99.99,,,-99.99,,2013-05-12 18:32:00,
2013-05-12 13:42:00,76.0,-99.9,30.08,NNE,21,10.0,14.0,-999,-99.99,,,-99.99,,2013-05-12 18:42:00,
2013-05-12 13:52:00,76.0,-99.9,30.09,NNE,19,9.0,13.0,-999,-99.99,,,-99.99,,2013-05-12 18:52:00,
2013-05-12 14:01:00,76.0,-99.9,30.09,North,8,9.0,12.0,-999,-99.99,,,-99.99,,2013-05-12 19:01:00,
2013-05-12 14:11:00,77.0,-99.9,30.10,NNE,17,6.0,8.0,-999,-99.99,,,-99.99,,2013-05-12 19:11:00,
2013-05-12 14:22:00,76.0,-99.9,30.10,North,-999,-999.0,-999.0,-999,-99.99,,,-99.99,,2013-05-12 19:22:00,
2013-05-12 14:32:00,76.0,-99.9,30.09,North,5,8.0,10.0,-999,-99.99,,,-99.99,,2013-05-12 19:32:00,
2013-05-12 14:42:00,76.0,-99.9,30.09,NNW,338,8.0,12.0,-999,-99.99,,,-99.99,,2013-05-12 19:42:00,
2013-05-12 14:52:00,76.0,-99.9,30.08,NNW,336,10.0,15.0,-999,-99.99,,,-99.99,,2013-05-12 19:52:00,
2013-05-12 15:02:00,76.0,-99.9,30.08,NNW,339,10.0,14.0,-999,-99.99,,,-99.99,,2013-05-12 20:02:00,
2013-05-12 15:11:00,76.0,-99.9,30.07,NNW,344,10.0,14.0,-999,-99.99,,,-99.99,,2013-05-12 20:11:00,
2013-05-12 15:22:00,75.0,-99.9,30.06,NNW,342,11.0,15.0,-999,-99.99,,,-99.99,,2013-05-12 20:22:00,
2013-05-12 15:32:00,75.0,-99.9,30.06,NNW,343,10.0,14.0,-999,-99.99,,,-99.99,,2013-05-12 20:32:00,
2013-05-12 15:42:00,76.0,-99.9,30.06,NNW,335,10.0,14.0,-999,-99.99,,,-99.99,,2013-05-12 20:42:00,
2013-05-12 15:52:00,76.0,-99.9,30.07,North,349,8.0,13.0,-999,-99.99,,,-99.99,,2013-05-12 20:52:00,
2013-05-12 16:01:00,75.0,-99.9,30.06,NNW,341,8.0,12.0,-999,-99.99,,,-99.99,,2013-05-12 21:01:00,
2013-05-12 16:11:00,76.0,-99.9,30.07,NNW,346,9.0,13.0,-999,-99.99,,,-99.99,,2013-05-12 21:11:00,
2013-05-12 16:22:00,75.0,-99.9,30.07,North,-999,-999.0,-999.0,-999,-99.99,,,-99.99,,2013-05-12 21:22:00,
2013-05-12 16:33:00,75.0,-99.9,30.07,NNW,345,9.0,13.0,-999,-99.99,,,-99.99,,2013-05-12 21:33:00,
2013-05-12 16:43:00,76.0,-99.9,30.06,North,-999,-999.0,-999.0,-999,-99.99,,,-99.99,,2013-05-12 21:43:00,
2013-05-12 16:53:00,77.0,-99.9,30.06,North,353,9.0,12.0,-999,-99.99,,,-99.99,,2013-05-12 21:53:00,
2013-05-12 17:03:00,77.0,-99.9,30.06,NNW,346,11.0,17.0,-999,-99.99,,,-99.99,,2013-05-12 22:03:00,
2013-05-12 17:12:00,76.0,-99.9,30.06,NNW,335,11.0,15.0,-999,-99.99,,,-99.99,,2013-05-12 22:12:00,
2013-05-12 17:23:00,76.0,-99.9,30.07,North,-999,-999.0,-999.0,-999,-99.99,,,-99.99,,2013-05-12 22:23:00,
2013-05-12 17:33:00,77.0,-99.9,30.07,NNW,340,10.0,13.0,-999,-99.99,,,-99.99,,2013-05-12 22:33:00,
2013-05-12 17:42:00,77.0,-99.9,30.06,NNW,347,8.0,11.0,-999,-99.99,,,-99.99,,2013-05-12 22:42:00,
2013-05-12 17:52:00,77.0,-99.9,30.06,NNW,332,9.0,13.0,-999,-99.99,,,-99.99,,2013-05-12 22:52:00,
2013-05-12 18:02:00,77.0,-99.9,30.06,NNW,341,9.0,13.0,-999,-99.99,,,-99.99,,2013-05-12 23:02:00,
2013-05-12 18:12:00,77.0,-99.9,30.06,NNW,336,9.0,12.0,-999,-99.99,,,-99.99,,2013-05-12 23:12:00,
2013-05-12 18:22:00,77.0,-99.9,30.06,North,-999,-999.0,-999.0,-999,-99.99,,,-99.99,,2013-05-12 23:22:00,
2013-05-12 18:32:00,77.0,-99.9,30.06,NNW,339,9.0,12.0,-999,-99.99,,,-99.99,,2013-05-12 23:32:00,
2013-05-12 18:42:00,77.0,-99.9,30.06,NNW,346,9.0,12.0,-999,-99.99,,,-99.99,,2013-05-12 23:42:00,
2013-05-12 18:52:00,77.0,-99.9,30.06,North,355,8.0,11.0,-999,-99.99,,,-99.99,,2013-05-12 23:52:00,
2013-05-12 19:01:00,76.0,-99.9,30.06,NNW,342,5.0,6.0,-999,-99.99,,,-99.99,,2013-05-13 00:01:00,
2013-05-12 19:11:00,76.0,-99.9,30.06,NNW,341,6.0,9.0,-999,-99.99,,,-99.99,,2013-05-13 00:11:00,
2013-05-12 19:22:00,74.0,-99.9,30.06,North,-999,-999.0,-999.0,-999,-99.99,,,-99.99,,2013-05-13 00:22:00,
2013-05-12 19:32:00,74.0,-99.9,30.06,NNW,342,5.0,7.0,-999,-99.99,,,-99.99,,2013-05-13 00:32:00,
2013-05-12 19:42:00,74.0,-99.9,30.06,NNW,339,5.0,7.0,-999,-99.99,,,-99.99,,2013-05-13 00:42:00,
2013-05-12 19:52:00,74.0,-99.9,30.07,NNW,340,3.0,4.0,-999,-99.99,,,-99.99,,2013-05-13 00:52:00,
2013-05-12 20:01:00,73.0,-99.9,30.07,NNW,336,3.0,4.0,-999,-99.99,,,-99.99,,2013-05-13 01:01:00,
2013-05-12 20:11:00,73.0,-99.9,30.07,NNW,334,3.0,4.0,-999,-99.99,,,-99.99,,2013-05-13 01:11:00,
2013-05-12 20:22:00,73.0,-99.9,30.07,NNW,339,3.0,4.0,-999,-99.99,,,-99.99,,2013-05-13 01:22:00,
2013-05-12 20:32:00,73.0,-99.9,30.07,NNW,346,5.0,7.0,-999,-99.99,,,-99.99,,2013-05-13 01:32:00,
2013-05-12 20:42:00,72.0,-99.9,30.07,NNW,343,6.0,8.0,-999,-99.99,,,-99.99,,2013-05-13 01:42:00,
2013-05-12 20:52:00,72.0,-99.9,30.08,North,-999,-999.0,-999.0,-999,-99.99,,,-99.99,,2013-05-13 01:52:00,
2013-05-12 21:02:00,72.0,-99.9,30.09,NNW,345,7.0,10.0,-999,-99.99,,,-99.99,,2013-05-13 02:02:00,
2013-05-12 21:11:00,71.0,-99.9,30.09,North,355,7.0,9.0,-999,-99.99,,,-99.99,,2013-05-13 02:11:00,
2013-05-12 21:21:00,71.0,-99.9,30.08,North,-999,-999.0,-999.0,-999,-99.99,,,-99.99,,2013-05-13 02:21:00,
2013-05-12 21:32:00,71.0,-99.9,30.09,North,351,6.0,8.0,-999,-99.99,,,-99.99,,2013-05-13 02:32:00,
2013-05-12 21:42:00,70.0,-99.9,30.09,North,353,6.0,8.0,-999,-99.99,,,-99.99,,2013-05-13 02:42:00,
2013-05-12 21:52:00,70.0,-99.9,30.09,North,357,6.0,7.0,-999,-99.99,,,-99.99,,2013-05-13 02:52:00,
2013-05-12 22:02:00,70.0,-99.9,30.09,North,355,6.0,10.0,-999,-99.99,,,-99.99,,2013-05-13 03:02:00,
2013-05-12 22:11:00,70.0,-99.9,30.10,North,7,6.0,8.0,-999,-99.99,,,-99.99,,2013-05-13 03:11:00,
2013-05-12 22:22:00,69.0,-99.9,30.10,North,-999,-999.0,-999.0,-999,-99.99,,,-99.99,,2013-05-13 03:22:00,
2013-05-12 22:33:00,69.0,-99.9,30.09,NNE,13,9.0,11.0,-999,-99.99,,,-99.99,,2013-05-13 03:33:00,
2013-05-12 22:42:00,69.0,-99.9,30.10,NNE,20,8.0,10.0,-999,-99.99,,,-99.99,,2013-05-13 03:42:00,
2013-05-12 22:53:00,69.0,-99.9,30.10,North,-999,-999.0,-999.0,-999,-99.99,,,-99.99,,2013-05-13 03:53:00,
2013-05-12 23:03:00,69.0,-99.9,30.10,North,5,9.0,11.0,-999,-99.99,,,-99.99,,2013-05-13 04:03:00,
2013-05-12 23:12:00,68.0,-99.9,30.10,North,358,8.0,11.0,-999,-99.99,,,-99.99,,2013-05-13 04:12:00,
2013-05-12 23:23:00,67.0,-99.9,30.10,North,-999,-999.0,-999.0,-999,-99.99,,,-99.99,,2013-05-13 04:23:00,
2013-05-12 23:33:00,67.0,-99.9,30.11,North,355,9.0,11.0,-999,-99.99,,,-99.99,,2013-05-13 04:33:00,
2013-05-12 23:42:00,67.0,-99.9,30.10,North,-999,-999.0,-999.0,-999,-99.99,,,-99.99,,2013-05-13 04:42:00,
2013-05-12 23:53:00,67.0,-99.9,30.11,North,1,8.0,11.0,-999,-99.99,,,-99.99,,2013-05-13 04:53:00,